KANOPUS-V 6 (43877 NORAD) Tracking and Keplerian Element Data

This shows tracking and keplerian element data for the satellite.

Feedback or suggestion? Click here.




ElementValue
Catalog43877
NameKANOPUS-V 6
Epoch Orbit110
Epoch Day16.81316321
Epoch Year2019
RAAN286.7918
Inclination97.4678
Eccentricity0.000805
Argument of Perigee26.5855
Mean Anonmoly333.5791
Mean Motion15.20302903
Decay Rate1.34E-06
L11 43877U 18111B 19016.81316321 .00000134 00000-0 93606-5 0 9990
L22 43877 97.4678 286.7918 0008050 26.5855 333.5791 15.20302903 1105

Live tracking and technical data element details for KANOPUS-V 6 (NORAD 43877). KANOPUS-V 6 can be tracked NOW for your location showing map with azimuth and elevation plus other details from your city location.

Track the satellite on the map from your city or location and see movement details for azimuth, elevation, latitude, longitude, range, height, and movement on the map or in text.







IsCatalogInMostPopularTable: catalog: 43877, numindb: 14
Update: records affected: 1



GetName: 43877 KANOPUS-V 6

Hit Count: updated at: Thu, 17 Jan 2019 15:41:04 GMT